This is the latest recevied weather packets stored in our database for station/object EA1FWM-12. If no packets are shown the sender has not sent any weather packets the latest 10 day(s).
| Time | Temp. | Humidity | Pressure | Rain* | Wind** | Luminosity | Snow |
|---|---|---|---|---|---|---|---|
| 1777609083 | 10° C | 85% | 1022.2 hPa | - | - | - | - |
| 1777608183 | 10° C | 85% | 1022.3 hPa | - | - | - | - |
| 1777607284 | 10° C | 85% | 1022.2 hPa | - | - | - | - |
| 1777606384 | 10° C | 85% | 1022.3 hPa | - | - | - | - |
| 1777605483 | 10° C | 84% | 1022.4 hPa | - | - | - | - |
| 1777604585 | 10° C | 84% | 1022.4 hPa | - | - | - | - |
| 1777603686 | 10.56° C | 84% | 1022.5 hPa | - | - | - | - |
| 1777602786 | 10.56° C | 84% | 1022.5 hPa | - | - | - | - |
| 1777601886 | 12.78° C | 84% | 1022.4 hPa | - | - | - | - |
| 1777601656 | 10.56° C | 84% | 1022.4 hPa | - | - | - | - |
| 1777600756 | 10.56° C | 84% | 1022.5 hPa | - | - | - | - |
| 1777599856 | 10.56° C | 83% | 1022.6 hPa | - | - | - | - |
| 1777598956 | 10.56° C | 83% | 1022.8 hPa | - | - | - | - |
| 1777598057 | 10° C | 83% | 1022.9 hPa | - | - | - | - |
| 1777597156 | 10° C | 83% | 1022.9 hPa | - | - | - | - |
| 1777596257 | 10° C | 82% | 1022.8 hPa | - | - | - | - |
| 1777595356 | 10° C | 82% | 1022.9 hPa | - | - | - | - |
| 1777594457 | 10° C | 82% | 1023 hPa | - | - | - | - |
| 1777593557 | 10° C | 81% | 1023 hPa | - | - | - | - |
| 1777592657 | 10.56° C | 81% | 1023 hPa | - | - | - | - |
| 1777591757 | 10.56° C | 80% | 1022.9 hPa | - | - | - | - |
| 1777590857 | 11.11° C | 80% | 1022.8 hPa | - | - | - | - |
| 1777589957 | 11.67° C | 80% | 1022.8 hPa | - | - | - | - |
| 1777589058 | 11.67° C | 80% | 1022.8 hPa | - | - | - | - |
| 1777588158 | 11.67° C | 80% | 1022.9 hPa | - | - | - | - |
* Rain since midnight (hover to see other rain measurements)
** Current wind speed in m/s (hover to see current wind gust speed)